Location: Sulphur Springs (historical)
(38.1246°N, 122.1900°W)
Time: 05:42:24
(UTC+00:00)

Cosmos 1315 Rocket - Pass Details

Date: 29 October 2020
Orbit: 530 x 567 km, 81.2° (Epoch: 29 November)

Event Time Altitude Azimuth Distance (km) Brightness Sun altitude
Rises 13:17:37 0° 357° (N) 2,765 6.3 -15.2°
Reaches altitude 10° 13:19:53 10° 3° (N) 1,868 5.5 -14.8°
Maximum altitude 13:23:52 47° 78° (ENE) 760 4.0 -14.0°
Drops below altitude 10° 13:27:50 10° 153° (SSE) 1,859 6.0 -13.2°
Sets 13:30:04 0° 159° (SSE) 2,750 6.8 -12.8°
